Regional Weather Roundup
Issued by NWS Grand Forks, ND

Home | Current Version | Previous Version | Graphics & Text | Print | Product List | Glossary On
Versions: 1 2 3 4 5 6 7 8 9 10 11 12 13 14 15 16 17 18 19 20 21 22 23 24 25 26 27 28 29 30 31 32 33 34 35 36 37 38 39 40 41 42 43 44 45 46 47 48 49 50
000
ASUS43 KFGF 230910
RWRFGF
PRAIRIE TO PINES  WEATHER ROUNDUP
NATIONAL WEATHER SERVICE EASTERN NORTH DAKOTA/GRAND FORKS ND
300 AM CST THU NOV 23 2017

 **SATELLITE DATA USED TO AUGMENT SKY COVER AT AUTOMATED STATIONS**
 *****  WEATHER ACROSS EASTERN NORTH DAKOTA  *****

CITY           SKY/WX    TMP DP  RH WIND       PRES   REMARKS
GRAND FORKS    CLOUDY    24  23  96 CALM      29.94S
GRAND FRKS AFB CLOUDY    25  23  92 S3        29.94S
GRAND FRKS NWS   N/A     23 N/A N/A MISG        N/A
DEVILS LAKE    CLOUDY    28  24  85 W14       29.91F WCI  17
FARGO          MOCLDY    23  18  81 W5        29.96R WCI  17
WAHPETON ARPT  NOT AVBL
$$

 ***** WEATHER ACROSS CENTRAL AND WESTERN NORTH DAKOTA  *****

CITY           SKY/WX    TMP DP  RH WIND       PRES   REMARKS
BISMARCK       FAIR      26  21  81 CALM      29.94F
MINOT          FAIR      24  21  88 S7        29.85F WCI  16
JAMESTOWN      CLOUDY    27  25  92 W6        29.93F WCI  20
MINOT AFB      FAIR      20  18  92 S7        29.83F WCI  11
GARRISON         N/A     27  25  92 S3        29.88F
WILLISTON      FAIR      25  22  88 S3        29.84F
DICKINSON      FAIR      39  36  89 SW6       29.87F
HETTINGER      FAIR      32  30  92 W3        29.95F
$$

 *****  OTHER AIRPORT OBSERVATIONS IN OUR AREA  *****

CITY           SKY/WX    TMP DP  RH WIND       PRES   REMARKS
WALHALLA       FAIR      21  21 100 NW5       29.89F WCI  15
GRAFTON AIRPOR FAIR      12  12 100 SW6       29.94F WCI   3
VALLEY CITY AR CLOUDY    28  28 100 W10       29.95S WCI  19
CANDO          CLOUDY    27  27 100 W8        29.91F WCI  18
CAVALIER APRT  FAIR      12  12 100 S6        29.90F WCI   3
GWINNER          N/A     25  21  86 CALM      29.96S
SHEYENNE NWR     N/A     24  21  87 NW2       29.95
ROLLA          CLOUDY    25  25 100 SW9       29.86F WCI  15
 ***** THE ABOVE OBSERVATIONS ARE NON NWS ARE NOT QUALITY
       CONTROLLED AND MAY MIS-REPORT RAIN FOR SNOW...
$$

  *****  WEATHER ACROSS NORTHERN MINNESOTA  *****

CITY           SKY/WX    TMP DP  RH WIND       PRES   REMARKS
FLAG ISLAND    CLOUDY    18  16  93 W3        29.87F
WARROAD        FAIR      16  12  86 SW5       29.89F WCI   9
ROSEAU         FAIR      18  12  79 SW6       29.90F WCI   9
HALLOCK        FAIR      12  10  92 S3        29.91F
THF RVR FALLS  FAIR      15  13  91 SW5       29.93S WCI   8
BAUDETTE       FAIR      17  15  92 W3        29.88R
WASKISH        FAIR      19  18  93 CALM      29.90S
CROOKSTON      MOCLDY    19  18  93 CALM      29.95S
STEPHEN NDAWN    N/A     14  12  92 S3          N/A
GREENBUSH NDAW   N/A     12  10  92 S3          N/A
$$
  *****  WEATHER ACROSS CENTRAL AND WEST MINNESOTA  *****

CITY           SKY/WX    TMP DP  RH WIND       PRES   REMARKS
FOSSTON        FAIR      10   9  92 S3        29.93R
BEMIDJI        FAIR      16  15  94 CALM      29.90S
PARK RAPIDS    FAIR      11   7  84 CALM      29.90S
ELBOW LAKE     FAIR      20  16  84 CALM      29.95R FOG
WADENA         FAIR      18  14  86 CALM      29.91S
DETROIT LAKES  FAIR      21  19  93 SW3       29.93R
MOORHEAD       FAIR      19  14  79 CALM      29.97S
FERGUS FALLS   FAIR      18  14  86 W5        29.98R WCI  11
MORRIS MN      FAIR      21  18  86 NW8       29.94S WCI  12
STAPLES        FAIR      16  12  86 CALM      29.92R
$$
  *****  WEATHER ELSEWHERE ACROSS MINNESOTA  *****

CITY           SKY/WX    TMP DP  RH WIND       PRES   REMARKS
DULUTH         CLOUDY    21  19  92 W9        29.90F WCI  11
INTRNTL FALLS  FAIR      19  15  84 W5        29.89S WCI  12
ELY            CLOUDY    19  16  86 W6        29.89F WCI  11
CLOQUET        MOCLDY    23  19  86 CALM      29.91F
WHEATON        FAIR      25  18  74 NW5       29.98S WCI  19
BRAINERD       FAIR      12   9  87 CALM      29.91F
HIBBING        CLOUDY    19  17  92 CALM      29.90F
ALEXANDRIA     FAIR      22  18  85 NW3       29.92S
SAINT CLOUD    FAIR      20  17  88 CALM      29.92F
MINNEAPOLIS    FAIR      26  19  74 CALM      29.94R
$$

  *****  WEATHER ACROSS SOUTH DAKOTA  *****

CITY           SKY/WX    TMP DP  RH WIND       PRES   REMARKS
SIOUX FALLS    FAIR      34  28  79 NW9       29.96S
BROOKINGS      FAIR      25  21  85 W5        29.96R WCI  19
WATERTOWN      FAIR      26  22  84 NW5       29.95R WCI  20
HURON          FAIR      24  23  96 W7        30.01R WCI  16
SISSETON         N/A     27  20  75 NW9       29.95S WCI  18
ABERDEEN       FAIR      21  20  96 SW5       30.00R WCI  15
MITCHELL       FAIR      31  28  89 NW8       30.01S WCI  23
PIERRE         FAIR      38  36  92 SW9       29.98S
MOBRIDGE       FAIR      28  26  92 CALM      29.93F
RAPID CITY     FAIR      44  36  73 W5        30.04S
$$

  *****  SOME WEATHER IN NEARBY STATES *****

CITY           SKY/WX    TMP DP  RH WIND       PRES   REMARKS
GLASGOW MT     FAIR      36  35  96 SE3       29.82F
GREAT FALLS MT FAIR      56  38  50 SW17G23   29.92F
CHEYENNE WY    FAIR      50  37  61 W15       30.26S
SCOTTSBLUFF NE FAIR      38  34  85 NW6       30.17S
OMAHA NE       FAIR      31  21  66 S5        30.00R
DES MOINES IA  FAIR      32  18  56 S6        29.98F
DAVENPORT IA   CLOUDY    34  18  52 S15       30.06F WCI  24
CHICAGO IL     CLOUDY    33  18  53 SW9       30.10F
EAU CLAIRE WI  FAIR      20  15  81 CALM      29.94F
LA CROSSE WI   FAIR      33  19  56 S9        29.97R
$$

  *****  SOME NATIONAL WEATHER *****

CITY           SKY/WX    TMP DP  RH WIND       PRES   REMARKS
LA GUARDIA NY  FAIR      35  22  58 NW17G25   30.08F WCI  25
RALEIGH NC     MOCLDY    36  26  67 CALM      30.15F
ATLANTA GA     MOCLDY    45  35  68 NE9       30.06F
NEW ORLEANS LA FAIR      49  37  63 N10       30.11S
OKLAHOMA CITY  FAIR      32  22  66 S6        30.16F
ALBUQUERQUE NM FAIR      44  26  49 CALM      30.32F
SALT LAKE CITY MOCLDY    47  40  76 SE7       30.31F
LOS ANGELES CA FAIR      77  40  26 N3        30.01F
BOISE ID       FAIR      47  46  97 CALM      30.13F FOG
SEATTLE WA     LGT RAIN  58  56  93 SW12      29.86R
$$

*** WEATHER ACROSS MANITOBA...SASKATCHEWAN AND ONTARIO ***
                ***ONTARIO***

CITY           SKY/WX    TMP DP  RH WIND       PRES   REMARKS
GERALDTON      FLURRIES  19  16  86 SW9       29.74F WCI   9
THUNDER BAY    CLOUDY    25  21  86 W8        29.87F WCI  16
SIOUX LOOKOUT  FLURRIES  19  16  86 W9        29.79F WCI   9
TORONTO        CLOUDY    30  21  69 SW13      30.13S WCI  20
BIG TROUT LK   LGT SNOW  10   7  85 NW20      29.67S WCI  -8
PICKLE LAKE    NOT AVBL
DRYDEN         CLOUDY    19  18  93 W12       29.80F WCI   7
KENORA         CLOUDY    18  16  93 W6        29.85S WCI   9
$$
                *** MANITOBA***

CITY           SKY/WX    TMP DP  RH WIND       PRES   REMARKS
BRANDON        CLOUDY    18  14  86 N3        29.87F
DAUPHIN        CLOUDY    25  19  80 W8        29.85F WCI  16
ISLAND LAKE    FLURRIES   9   3  78 NW10G20   29.81R WCI  -6
PILOT MOUND      N/A     21  18  86 SW5         N/A  WCI  15
THE PAS        CLOUDY     7   1  78 NW5       29.89S WCI  -2
THOMPSON       PTCLDY     0  -8  71 NW7       29.85S WCI -13
WINNIPEG       CLOUDY    19  16  86 SW7       29.88F WCI  10
LYNN LAKE      CLEAR     -8 -11  84 W6        29.84F WCI -21
CHURCHILL      CRYSTALS  -4  -9  77 W18       29.71R WCI -26
$$
                ***SASKATCHEWAN***

CITY           SKY/WX    TMP DP  RH WIND       PRES   REMARKS
ESTEVAN        NOT AVBL
KINDERSLEY     CLEAR     23  21  93 S5        29.58F WCI  17
LLOYDMINSTER   PTCLDY    14  10  85 SE9       29.52F WCI   2
PRINCE ALBERT  FLURRIES  14  10  85 SE5       29.75F WCI   6
REGINA         CLEAR     18  16  93 SE13      29.72F WCI   4
YORKTON        CLOUDY    21  19  93 VRB2      29.81F
N. BATTLEFORD  CLEAR     14   9  79 SE10G17   29.64F WCI   1
LA RONGE       FLURRIES   9   3  78 E9        29.82F WCI  -5
SASKATOON      PTCLDY    16  12  86 E8        29.68F WCI   5
SWIFT CURRENT  CLEAR     39  36  87 SW15      29.65F
$$
NOTE: THESE ARE AUTOMATED STATIONS WITH LIMITED QUALITY CONTROL
      "FAIR" INDICATES FEW OR NO CLOUDS BELOW 12,000 FEET WITH NO
      SIGNIFICANT WEATHER AND/OR OBSTRUCTIONS TO VISIBILITY.
      SKY/WX - SKY CONDITION AND SIGNIFICANT WEATHER.
      TMP - AIR TEMPERATURE.    DP   - DEWPOINT TEMPERATURE.
      RH  - RELATIVE HUMIDITY.  PRES - PRESSURE.
      HX  - HEAT INDEX.         WCI  - WIND CHILL INDEX.
$




USA.gov is the U.S. government's official web portal to all federal, state and local government web resources and services.